Regional Weather Roundup
Issued by NWS State College, PA

Home | Current Version | Previous Version | Text Only | Print | Product List | Glossary On
Versions: 1 2 3 4 5 6 7 8 9 10 11 12 13 14 15 16 17 18 19 20 21 22 23 24 25 26 27 28 29 30 31 32 33 34 35 36 37 38 39 40 41 42 43 44 45 46 47 48 49 50
000
ASUS41 KCTP 162210
RWRCTP

REGIONAL WEATHER ROUNDUP
NATIONAL WEATHER SERVICE STATE COLLEGE PA
600 PM EDT WED AUG 16 2017

Note: "fair" indicates few or no clouds below 12,000 feet with no
significant weather and/or obstructions to visibility.

* = STATION THAT DOES NOT REPORT PRECIPITATION /E.G. RAIN...SNOW...ETC/
    THUNDER OR FOG.

PAZ002>004-007>009-013>016-020>023-029>032-162300-
WESTERN PENNSYLVANIA

CITY           SKY/WX    TMP DP  RH WIND       PRES   REMARKS
ERIE           SUNNY     79  53  40 NE8       30.05F
MEADVILLE      SUNNY     79  54  41 N7        30.08S
FRANKLIN*      SUNNY     79  55  44 NW6       30.08S
NEW CASTLE     FAIR      82  60  47 NE5       30.05F
BEAVER COUNTY  SUNNY     82  57  42 NE6       30.06S
BUTLER*        SUNNY     81  61  50 CALM      30.05F
PITTSBURGH INT MOSUNNY   84  59  42 N6        30.04F
PITTSBURGH     SUNNY     83  57  41 VRB3      30.04S
INDIANA*       SUNNY     82  59  44 VRB6      30.08F
LATROBE        NOT AVBL
WASHINGTON CO* SUNNY     82  63  51 N6        30.04F
$$

PAZ004>006-010>012-017>019-024>028-033>037-041-042-045-046-049>053-162300-
CENTRAL PENNSYLVANIA

CITY           SKY/WX    TMP DP  RH WIND       PRES   REMARKS
BRADFORD       SUNNY     76  57  51 N5        30.09S
DUBOIS         SUNNY     76  54  46 NW5       30.07S
CLEARFIELD     MOSUNNY   82  53  36 W8        30.06S
JOHNSTOWN      SUNNY     78  57  48 NW9       30.10S
ALTOONA        SUNNY     81  59  47 NW8       30.06S
STATE COLLEGE  MOSUNNY   82  55  39 CALM      30.04S
WILLIAMSPORT   PTSUNNY   82  62  50 NE7       29.99R
SELINSGROVE    MOSUNNY   82  67  60 CALM      30.00R
FT INDIANTOWN  NOT AVBL
CAPITAL CITY   MOSUNNY   87  58  37 N7        29.99S
HARRISBURG     MOSUNNY   84  63  49 VRB5      29.98S
YORK           SUNNY     84  63  49 NW3       30.00S
$$

PAZ038>040-043-044-047-048-054-055-060>062-067>071-162300-
EASTERN PENNSYLVANIA

CITY           SKY/WX    TMP DP  RH WIND       PRES   REMARKS
SCRANTON       SUNNY     80  61  52 NW9       30.03R
MOUNT POCONO   SUNNY     75  59  57 N8        30.06S
ALLENTOWN      CLOUDY    84  65  52 N5        29.98S
QUAKERTOWN*    PTCLDY    84  61  45 N5        30.00R
READING        SUNNY     85  63  47 VRB6      29.97S
LANCASTER      SUNNY     84  66  54 N5        29.99S
COATESVILLE    CLEAR     82  64  54 NW6       30.02R
POTTSTOWN      PTSUNNY   84  62  47 N5        30.00R
BLUE BELL      PTSUNNY   81  66  61 NW3       29.99R
DOYLESTOWN     SUNNY     84  61  45 N6        29.98R
WILLOW GROVE   NOT AVBL
NORTH PHILA    MOSUNNY   87  66  49 VRB7      29.97S
PHILADELPHIA   MOSUNNY   87  62  43 NW10      29.96S
$$



USA.gov is the U.S. government's official web portal to all federal, state and local government web resources and services.